STARLINK-30396, 57964

Orbit data source: Space-Track

STARLINK-30396, 57964 is a payload satellite owned by SpaceX/Seattle (US) in LEO that was launched on Sat, 30 Sep 2023 UTC via an FALCON 9 launch vehicle from the Air Force Eastern Test Range (AFETR). Payload-class satellites include a variety of spacecraft equipped with specific instruments for various scientific and technological missions. These include communications satellites like Starlink; space stations such as the ISS; scientific satellites like the Hubble; Earth observation satellites from companies like Planet Labs, Umbra, and HawkEye 360; GPS; miniature CubeSats for education and research; and military/defense satellites.

Loading next visibility...
Identifier
57964, 2023-151A
Orbit
LEO
Country
Flag of USUS
Related business
Manufacturer
SpaceX/Seattle
Mission
Operational Commercial Communications
Bus & Motor
STARLINK V2M, Unknown motor
Mass
730 kg wet, ~700 kg dry
Launch date (UTC)
2023-09-30 (3 years ago)
Launch vehicle
FALCON 9
Launch site
Air Force Eastern Test Range (AFETR)
Object type
Payload
Rocket body
Debris
Shape & HBR
Box + 2 Pan, 17.7 m
Radar Cross Section
33.884 m², Large (>1 m²)

Expand to show TLE details & history
Last TLE update: 13 hours ago

TLE from 13 hours ago
0 STARLINK-30396
1 57964U 23151A   26192.86349337  .00000505  00000-0  27864-4 0  9997
2 57964  43.0020 355.0464 0001407 266.9813  93.0878 15.27578659154758
Epoch: 2026-07-11T20:43Z
TLE epoch observation values (Epoch: 2026-07-11T20:43:25.827Z)
Latitude
0.00002°
Longitude
114.4182°
Altitude
482.881 km
Speed
7.626 km/s
True Right ascension
23h 40m 11s
True Declination
0° 00' 00"
Sunlit
Object was in full shadow at epoch
Visualization orbit readout
Latitude
Unknown
Longitude
Unknown
Altitude
Unknown
Speed
Unknown
Apparent Right ascension
Unknown
Apparent Declination
Unknown
Sunlit
N/A
Visualization observer readout
Local Sidereal Time
21:58:51
Azimuth
Unknown
Elevation
Unknown
Doppler factor
Unknown
Orbital elements
Apogee altitude
485.964 km
Perigee altitude
484.032 km
Semi-major axis
6,863.135 km
Eccentricity
0.00014
Inclination
43.002°
RAAN
355.0464°
Arg. of periapsis
266.9813°
True anomaly
93.1039°
Mean anomaly
93.0878°
Eccentric anomaly
93.09585°
Mean motion
3.81733 °/min
Orbital period
94.31 mins
BSTAR
0.000027864
Loading maneuver chart data...
Computing Atmospheric mass density...
Loading historical data...
Loading historical data...
Loading historical data...
Loading historical data...
Loading historical data...
Loading historical data...
Loading historical data...

Documentation

Showing up to 5 results
|